Date String (YYYY-MM-DD hh:mm:ss) UTC,Instrument flags,absolute air pressure of the measurement (hPa),sample flow rate (lpm),inlet stack bypass flow (lpm),air temperature of the measurement (°C),ambient temperature measured by the external sensor (°C),aerosol sample conditioner tube jacket temperature (°C),OPC LED temperature (°C),internal box temperature (°C),relative humidity of the measurement (%),span deviation,mass concentration of particles derived from Lorenz-Mie calculation of OPC scattering (μg/m³),mass concentration of particles derived from Lorenz-Mie calculation of OPC scattering (μg/m³),mass concentration of particles derived from Lorenz-Mie calculation of OPC scattering (μg/m³)
DateTimeUTC,F1_M11,P_M11,Q1_M11,Q2_M11,T1_M11,T2_M11,T3_M11,T4_M11,T5_M11,U1_M11,ZSPAN_M11,X0_M11,X2_M11,X1_M11
2023-06-01 23:00:00,SystemResetWarning,0824.8,5.00,000.00,029.5,028.1,000.0,037.9,031.2,24.7,0000.0,0011.14,0004.45,0003.50
2023-06-01 23:01:00,SystemResetWarning,0824.7,4.99,000.00,029.6,028.2,000.0,037.9,031.3,24.8,0000.0,0011.15,0004.42,0003.51
2023-06-01 23:02:00,SystemResetWarning,0824.8,5.00,000.00,029.6,028.3,000.0,037.9,031.3,24.3,0000.0,0011.15,0004.44,0003.52
2023-06-01 23:03:00,SystemResetWarning,0824.8,5.00,000.00,029.6,028.3,000.0,037.9,031.3,23.8,0000.0,0011.29,0004.48,0003.53
2023-06-01 23:04:00,SystemResetWarning,0824.8,4.99,000.00,029.6,028.4,000.0,037.9,031.3,23.9,0000.0,0011.26,0004.45,0003.52
2023-06-01 23:05:00,SystemResetWarning,0824.8,5.00,000.00,029.7,028.3,000.0,037.9,031.4,23.4,0000.0,0011.60,0004.44,0003.51
2023-06-01 23:06:00,SystemResetWarning,0824.9,4.99,000.00,029.6,026.8,000.0,037.9,031.1,23.4,0000.0,0011.50,0004.40,0003.48
2023-06-01 23:07:00,SystemResetWarning,0824.8,5.01,000.00,029.6,025.7,000.0,037.8,031.0,23.5,0000.0,0010.78,0004.37,0003.46
2023-06-01 23:08:00,SystemResetWarning,0824.8,5.02,000.00,029.5,025.7,000.0,037.8,030.9,24.1,0000.0,0011.18,0004.34,0003.44
2023-06-01 23:09:00,SystemResetWarning,0824.8,5.00,000.00,029.4,026.0,000.0,037.8,030.9,24.1,0000.0,0011.54,0004.31,0003.43
2023-06-01 23:10:00,SystemResetWarning,0824.8,4.99,000.00,029.4,026.3,000.0,037.8,030.9,23.7,0000.0,0010.80,0004.30,0003.42
2023-06-01 23:11:00,SystemResetWarning,0824.9,5.00,000.00,029.4,026.7,000.0,037.8,030.9,23.7,0000.0,0010.55,0004.30,0003.39
2023-06-01 23:12:00,SystemResetWarning,0824.9,5.01,000.00,029.4,027.0,000.0,037.8,031.0,23.9,0000.0,0010.35,0004.28,0003.38
2023-06-01 23:13:00,SystemResetWarning,0824.9,5.00,000.00,029.4,027.2,000.0,037.8,031.0,24.2,0000.0,0010.23,0004.24,0003.35
2023-06-01 23:14:00,SystemResetWarning,0824.9,4.99,000.00,029.4,027.4,000.0,037.8,031.1,23.6,0000.0,0010.28,0004.20,0003.33
2023-06-01 23:15:00,SystemResetWarning,0824.9,5.00,000.00,029.4,027.6,000.0,037.8,031.1,23.9,0000.0,0010.30,0004.21,0003.33
2023-06-01 23:16:00,SystemResetWarning,0824.9,5.01,000.00,029.4,027.7,000.0,037.8,031.1,24.6,0000.0,0009.99,0004.21,0003.33
2023-06-01 23:17:00,SystemResetWarning,0824.9,5.01,000.00,029.5,027.9,000.0,037.8,031.1,24.0,0000.0,0009.94,0004.20,0003.34
2023-06-01 23:18:00,SystemResetWarning,0824.9,5.00,000.00,029.5,028.0,000.0,037.8,031.2,23.5,0000.0,0009.65,0004.16,0003.34
2023-06-01 23:19:00,SystemResetWarning,0824.9,5.00,000.00,029.5,028.1,000.0,037.8,031.2,23.7,0000.0,0008.83,0004.16,0003.34
2023-06-01 23:20:00,SystemResetWarning,0824.9,5.00,000.00,029.5,028.1,000.0,037.8,031.2,23.9,0000.0,0008.24,0004.18,0003.34
2023-06-01 23:21:00,SystemResetWarning,0824.9,5.00,000.00,029.6,028.2,000.0,037.8,031.3,23.7,0000.0,0008.13,0004.21,0003.35
2023-06-01 23:22:00,SystemResetWarning,0824.9,5.00,000.00,029.6,028.3,000.0,037.9,031.3,23.5,0000.0,0008.06,0004.18,0003.35
2023-06-01 23:23:00,SystemResetWarning,0824.9,5.00,000.00,029.6,028.3,000.0,037.9,031.3,23.5,0000.0,0008.18,0004.22,0003.36
2023-06-01 23:24:00,SystemResetWarning,0824.9,5.00,000.00,029.6,028.3,000.0,037.9,031.3,23.9,0000.0,0008.27,0004.25,0003.37
2023-06-01 23:25:00,SystemResetWarning,0825.0,5.00,000.00,029.6,028.4,000.0,037.9,031.4,23.8,0000.0,0008.22,0004.27,0003.39
2023-06-01 23:26:00,SystemResetWarning,0825.0,4.99,000.00,029.7,027.3,000.0,037.9,031.2,23.9,0000.0,0008.44,0004.29,0003.41
2023-06-01 23:27:00,SystemResetWarning,0825.1,5.01,000.00,029.6,025.9,000.0,037.8,031.0,24.1,0000.0,0008.87,0004.34,0003.43
2023-06-01 23:28:00,SystemResetWarning,0825.1,5.00,000.00,029.5,025.7,000.0,037.7,030.9,24.6,0000.0,0009.26,0004.39,0003.45
2023-06-01 23:29:00,SystemResetWarning,0825.1,5.01,000.00,029.5,025.9,000.0,037.7,030.9,22.2,0000.0,0009.60,0004.38,0003.42
2023-06-01 23:30:00,SystemResetWarning,0825.1,5.01,000.00,029.4,026.2,000.0,037.7,030.9,21.6,0000.0,0009.45,0004.25,0003.33
2023-06-01 23:31:00,SystemResetWarning,0825.1,4.99,000.00,029.4,026.5,000.0,037.7,030.9,21.2,0000.0,0009.17,0004.09,0003.22
2023-06-01 23:32:00,SystemResetWarning,0825.1,5.00,000.00,029.4,026.8,000.0,037.7,030.9,20.9,0000.0,0008.79,0003.89,0003.10
2023-06-01 23:33:00,SystemResetWarning,0825.1,5.00,000.00,029.4,027.1,000.0,037.7,031.0,21.0,0000.0,0008.48,0003.72,0002.92
2023-06-01 23:34:00,SystemResetWarning,0825.1,5.01,000.00,029.4,027.3,000.0,037.7,031.0,21.2,0000.0,0008.25,0003.54,0002.71
2023-06-01 23:35:00,SystemResetWarning,0825.1,5.00,000.00,029.4,027.5,000.0,037.8,031.1,21.3,0000.0,0007.99,0003.37,0002.49
2023-06-01 23:36:00,SystemResetWarning,0825.1,5.00,000.00,029.4,027.7,000.0,037.8,031.1,21.3,0000.0,0007.60,0003.19,0002.26
2023-06-01 23:37:00,SystemResetWarning,0825.1,5.00,000.00,029.5,027.8,000.0,037.8,031.1,21.6,0000.0,0006.80,0002.95,0002.02
2023-06-01 23:38:00,SystemResetWarning,0825.1,4.99,000.00,029.5,028.0,000.0,037.8,031.2,21.4,0000.0,0005.51,0002.57,0001.79
2023-06-01 23:39:00,SystemResetWarning,0825.1,4.99,000.00,029.5,028.0,000.0,037.8,031.2,21.5,0000.0,0004.49,0002.27,0001.56
2023-06-01 23:40:00,SystemResetWarning,0825.1,5.00,000.00,029.5,028.1,000.0,037.8,031.2,21.9,0000.0,0003.67,0002.08,0001.44
2023-06-01 23:41:00,SystemResetWarning,0825.1,5.00,000.00,029.5,028.2,000.0,037.8,031.3,21.7,0000.0,0003.58,0002.07,0001.41
2023-06-01 23:42:00,SystemResetWarning,0825.1,5.01,000.00,029.6,028.2,000.0,037.8,031.3,22.1,0000.0,0003.52,0002.06,0001.39
2023-06-01 23:43:00,SystemResetWarning,0825.1,5.00,000.00,029.6,028.3,000.0,037.9,031.3,22.1,0000.0,0003.69,0002.15,0001.39
2023-06-01 23:44:00,SystemResetWarning,0825.1,4.99,000.00,029.6,028.3,000.0,037.9,031.3,22.2,0000.0,0003.89,0002.22,0001.39
2023-06-01 23:45:00,SystemResetWarning,0825.1,4.99,000.00,029.6,028.4,000.0,037.9,031.3,22.3,0000.0,0003.70,0002.23,0001.41
2023-06-01 23:46:00,SystemResetWarning,0825.1,5.00,000.00,029.6,028.4,000.0,037.9,031.3,22.3,0000.0,0003.89,0002.22,0001.42
2023-06-01 23:47:00,SystemResetWarning,0825.1,5.00,000.00,029.6,028.4,000.0,037.9,031.3,22.5,0000.0,0004.56,0002.23,0001.41
2023-06-01 23:48:00,SystemResetWarning,0825.1,4.99,000.00,029.6,027.9,000.0,037.9,031.3,22.7,0000.0,0004.79,0002.27,0001.41
2023-06-01 23:49:00,SystemResetWarning,0824.9,5.00,000.00,029.6,026.1,000.0,037.8,031.0,22.5,0000.0,0004.79,0002.28,0001.40
2023-06-01 23:50:00,SystemResetWarning,0824.9,5.00,000.00,029.5,025.4,000.0,037.7,030.9,22.0,0000.0,0004.80,0002.26,0001.39
2023-06-01 23:51:00,SystemResetWarning,0824.9,5.01,000.00,029.4,025.6,000.0,037.7,030.8,21.3,0000.0,0004.79,0002.28,0001.42
2023-06-01 23:52:00,SystemResetWarning,0824.9,5.01,000.00,029.4,025.9,000.0,037.7,030.8,20.2,0000.0,0005.30,0002.26,0001.43
2023-06-01 23:53:00,SystemResetWarning,0824.9,5.00,000.00,029.3,026.2,000.0,037.7,030.8,20.1,0000.0,0005.30,0002.27,0001.45
2023-06-01 23:54:00,SystemResetWarning,0824.9,5.00,000.00,029.3,026.5,000.0,037.7,030.8,20.4,0000.0,0005.40,0002.29,0001.46
2023-06-01 23:55:00,SystemResetWarning,0824.9,5.00,000.00,029.3,026.8,000.0,037.7,030.9,21.3,0000.0,0005.37,0002.25,0001.46
2023-06-01 23:56:00,SystemResetWarning,0824.9,4.99,000.00,029.3,027.1,000.0,037.7,030.9,21.5,0000.0,0005.53,0002.30,0001.45
2023-06-01 23:57:00,SystemResetWarning,0824.9,4.99,000.00,029.3,027.3,000.0,037.7,031.0,21.8,0000.0,0005.60,0002.31,0001.44
2023-06-01 23:58:00,SystemResetWarning,0824.9,5.00,000.00,029.3,027.5,000.0,037.7,031.0,21.9,0000.0,0004.98,0002.36,0001.46
2023-06-01 23:59:00,SystemResetWarning,0824.9,5.00,000.00,029.3,027.6,000.0,037.7,031.0,22.3,0000.0,0005.41,0002.39,0001.47
